Lid_Strength_Index
5 4 3 3 2 2 2 2 3 2 2 2 3 2 2 2 1 0 1 1 0 1 1 0 1 1 1 1 1 2 2 2 1 3 3 2 1 1 1 0 1 1 1
5 4 4 3 3 3 3 2 2 2 2 1 2 2 2 1 1 1 1 0 1 1 1 1 1 1 1 1 1 1 2 2 2 3 4 6 4 2 1 2 2 2 0
6 5 4 4 3 3 3 2 2 2 2 2 1 1 1 1 2 2 1 1 0 1 0 1 1 1 1 1 1 1 2 3 2 2 3 6 7 5 3 3 2 1 2
6 4 4 4 5 5 3 3 2 2 2 2 2 3 3 4 2 3 2 1 0 0 0 0 1 1 1 1 1 1 1 2 3 2 2 2 3 6 7 3 2 2 2
5 5 5 5 5 5 4 2 2 3 3 2 2 2 3 3 2 1 2 3 2 0 0 0 1 2 1 1 1 1 1 1 2 2 2 2 3 4 5 7 4 3 2
6 6 6 6 6 5 5 4 4 3 2 3 2 2 3 2 3 2 2 2 1 2 1 2 4 1 0 1 1 1 1 1 2 2 2 3 4 4 5 5 5 4 3
7 7 7 7 6 6 5 5 5 5 4 3 3 2 2 2 2 2 2 2 2 2 2 1 1 1 0 1 1 1 1 1 2 2 2 2 2 3 4 4 5 5 4
7 7 7 7 7 6 5 5 5 5 4 4 4 2 2 2 2 2 2 2 2 1 1 2 1 2 3 2 1 2 2 1 1 2 2 2 2 1 3 3 4 6 5
8 8 7 7 6 6 5 5 5 4 4 4 3 3 2 2 3 2 1 1 1 1 1 1 2 1 1 2 1 2 2 1 1 1 1 2 2 2 2 3 4 4 7
8 8 7 7 7 7 6 5 4 5 4 5 4 3 2 2 2 1 2 1 2 2 3 4 4 3 3 3 2 1 1 1 1 1 2 2 2 1 1 2 3 3 4
7 8 7 7 7 6 6 6 5 5 5 4 4 4 4 3 2 2 2 2 2 1 2 3 4 5 4 3 5 5 4 2 2 3 3 3 2 2 1 1 2 3 4
7 7 7 8 7 6 7 7 5 5 5 4 4 4 4 3 2 2 2 1 2 2 2 2 3 3 2 3 3 2 3 2 3 3 4 3 2 2 3 1 2 3 4
6 6 7 7 7 6 6 6 6 5 5 5 6 5 4 3 2 2 2 1 1 2 2 2 1 1 1 2 2 3 2 3 3 3 3 2 2 2 2 2 2 3 3
6 7 7 6 6 6 5 5 6 6 5 5 5 5 4 3 3 3 3 2 1 2 2 2 1 1 1 1 1 1 3 2 1 1 1 1 2 2 2 2 3 3 4
6 7 7 7 6 6 6 5 4 4 4 4 4 4 4 4 4 3 3 3 1 1 2 2 2 1 1 1 1 1 2 3 2 2 1 1 1 1 2 2 3 4 4
7 6 6 6 6 6 5 4 4 3 4 4 4 4 4 4 4 4 4 4 4 2 2 2 2 2 1 3 3 2 3 2 2 2 2 1 3 4 6 6 6 5 6
7 7 7 6 5 5 4 4 4 4 4 4 4 3 4 4 4 4 4 4 4 4 2 3 2 2 2 4 4 5 4 3 2 4 5 4 4 6 7 7 7 6 3
7 7 6 6 5 4 4 5 4 5 5 5 5 4 4 4 4 5 5 6 5 4 4 3 2 2 2 5 4 6 5 2 2 3 4 4 6 5 5 6 4 3 4
6 6 5 5 5 5 5 6 7 6 6 6 5 5 4 5 5 5 5 4 4 5 4 3 2 2 2 5 6 6 3 3 2 2 2 2 3 4 4 3 3 3 3
6 5 5 5 6 7 8 8 8 8 8 7 7 7 7 7 6 4 4 4 4 4 3 4 4 3 2 6 7 7 3 4 4 3 2 3 2 6 6 2 3 4 3
5 5 5 7 8 9 9 9 10 10 10 10 10 9 8 8 8 7 5 4 4 4 5 5 5 3 2 2 7 7 4 4 4 3 3 3 6 8 7 5 3 3 3
5 7 8 9 9 9 10 10 11 11 11 11 11 10 9 8 8 7 5 4 4 6 6 7 7 4 2 4 5 7 8 5 4 3 2 3 9 10 9 6 6 7 5
7 9 10 10 10 10 11 13 13 12 12 12 11 11 9 8 7 7 5 4 5 7 7 8 8 7 3 2 6 7 9 7 4 3 4 6 9 10 8 9 8 8 4
10 10 11 12 12 13 13 13 13 12 12 11 11 11 11 9 8 7 5 5 5 7 7 8 8 7 5 4 5 4 6 7 5 5 3 5 6 7 6 8 8 5 5
11 12 12 14 14 14 14 13 13 13 12 11 12 12 10 10 9 8 6 5 6 7 7 8 8 7 5 6 8 8 3 5 5 4 3 4 5 4 4 5 6 6 4
12 14 15 15 15 14 14 14 14 13 12 12 12 12 11 10 9 9 8 8 7 8 9 10 9 6 7 9 9 10 10 9 7 5 4 4 4 4 4 4 4 4 4